Time,TemperatureF,DewpointF,PressureIn,WindDirection,WindDirectionDegrees,WindSpeedMPH,WindSpeedGustMPH,Humidity,HourlyPrecipIn,Conditions,Clouds,dailyrainin,SoftwareType,DateUTC
2013-08-03 00:04:00,54.9,52.6,29.92,West,270,1.0,-999.0,92,0.00,,,0.00,Wunderground v.1.15,2013-08-03 07:04:00,
2013-08-03 00:09:00,55.0,52.7,29.93,SW,225,2.0,-999.0,92,0.00,,,0.00,Wunderground v.1.15,2013-08-03 07:09:00,
2013-08-03 00:14:00,55.0,52.7,29.93,West,270,1.0,-999.0,92,0.00,,,0.00,Wunderground v.1.15,2013-08-03 07:14:00,
2013-08-03 00:19:00,55.0,53.0,29.92,West,270,0.0,-999.0,93,0.00,,,0.00,Wunderground v.1.15,2013-08-03 07:19:00,
2013-08-03 00:24:00,55.0,53.0,29.92,West,270,0.0,-999.0,93,0.00,,,0.00,Wunderground v.1.15,2013-08-03 07:24:00,
2013-08-03 00:29:00,55.1,53.1,29.92,West,270,1.0,-999.0,93,0.00,,,0.00,Wunderground v.1.15,2013-08-03 07:29:00,
2013-08-03 00:34:00,55.1,52.8,29.92,WNW,293,0.0,-999.0,92,0.00,,,0.00,Wunderground v.1.15,2013-08-03 07:34:00,
2013-08-03 00:39:00,55.1,52.8,29.92,WSW,248,1.0,-999.0,92,0.00,,,0.00,Wunderground v.1.15,2013-08-03 07:39:00,
2013-08-03 00:44:00,55.1,53.1,29.92,WSW,248,0.0,-999.0,93,0.00,,,0.00,Wunderground v.1.15,2013-08-03 07:44:00,
2013-08-03 00:49:00,55.1,53.1,29.92,West,270,1.0,-999.0,93,0.00,,,0.00,Wunderground v.1.15,2013-08-03 07:49:00,
2013-08-03 00:54:00,55.1,53.1,29.92,SW,225,1.0,-999.0,93,0.00,,,0.00,Wunderground v.1.15,2013-08-03 07:54:00,
2013-08-03 00:59:00,55.2,53.2,29.92,WSW,248,0.0,-999.0,93,0.00,,,0.00,Wunderground v.1.15,2013-08-03 07:59:00,
2013-08-03 01:04:00,55.2,53.2,29.92,WSW,248,1.0,-999.0,93,0.00,,,0.00,Wunderground v.1.15,2013-08-03 08:04:00,
2013-08-03 01:09:00,55.2,53.2,29.92,WSW,248,1.0,-999.0,93,0.00,,,0.00,Wunderground v.1.15,2013-08-03 08:09:00,
2013-08-03 01:14:00,55.1,53.1,29.91,WSW,248,0.0,-999.0,93,0.00,,,0.00,Wunderground v.1.15,2013-08-03 08:14:00,
2013-08-03 01:19:00,55.1,53.1,29.92,WSW,248,0.0,-999.0,93,0.00,,,0.00,Wunderground v.1.15,2013-08-03 08:19:00,
2013-08-03 01:24:00,55.2,53.2,29.91,South,180,0.0,-999.0,93,0.00,,,0.00,Wunderground v.1.15,2013-08-03 08:24:00,
2013-08-03 01:29:00,55.2,53.2,29.91,SSW,203,1.0,-999.0,93,0.00,,,0.00,Wunderground v.1.15,2013-08-03 08:29:00,
2013-08-03 01:34:00,55.1,53.1,29.91,WSW,248,0.0,-999.0,93,0.00,,,0.00,Wunderground v.1.15,2013-08-03 08:34:00,
2013-08-03 01:39:00,55.1,53.1,29.91,WSW,248,1.0,-999.0,93,0.00,,,0.00,Wunderground v.1.15,2013-08-03 08:39:00,
2013-08-03 01:44:00,55.1,53.1,29.91,WSW,248,1.0,-999.0,93,0.00,,,0.00,Wunderground v.1.15,2013-08-03 08:44:00,
2013-08-03 01:49:00,55.1,53.1,29.91,WSW,248,0.0,-999.0,93,0.00,,,0.00,Wunderground v.1.15,2013-08-03 08:49:00,
2013-08-03 01:54:00,55.1,53.1,29.91,N/A,-737280,0.0,-999.0,93,0.00,,,0.00,Wunderground v.1.15,2013-08-03 08:54:00,
2013-08-03 01:59:00,55.0,53.0,29.91,WSW,248,0.0,-999.0,93,0.00,,,0.00,Wunderground v.1.15,2013-08-03 08:59:00,
2013-08-03 02:04:00,55.0,53.0,29.91,WSW,248,0.0,-999.0,93,0.00,,,0.00,Wunderground v.1.15,2013-08-03 09:04:00,
2013-08-03 02:09:00,55.0,53.0,29.91,WSW,248,0.0,-999.0,93,0.00,,,0.00,Wunderground v.1.15,2013-08-03 09:09:00,
2013-08-03 02:14:00,54.9,52.6,29.91,West,270,0.0,-999.0,92,0.00,,,0.00,Wunderground v.1.15,2013-08-03 09:14:00,
2013-08-03 02:19:00,54.9,52.6,29.91,WSW,248,1.0,-999.0,92,0.00,,,0.00,Wunderground v.1.15,2013-08-03 09:19:00,
2013-08-03 02:24:00,54.8,52.5,29.91,WNW,293,1.0,-999.0,92,0.00,,,0.00,Wunderground v.1.15,2013-08-03 09:24:00,
2013-08-03 02:29:00,54.8,52.5,29.91,WNW,293,0.0,-999.0,92,0.00,,,0.00,Wunderground v.1.15,2013-08-03 09:29:00,
2013-08-03 02:34:00,54.8,52.8,29.91,West,270,1.0,-999.0,93,0.00,,,0.00,Wunderground v.1.15,2013-08-03 09:34:00,
2013-08-03 02:39:00,54.9,52.9,29.91,NW,315,1.0,-999.0,93,0.00,,,0.00,Wunderground v.1.15,2013-08-03 09:39:00,
2013-08-03 02:44:00,54.9,52.9,29.91,West,270,0.0,-999.0,93,0.00,,,0.00,Wunderground v.1.15,2013-08-03 09:44:00,
2013-08-03 02:49:00,55.0,53.0,29.91,WSW,248,1.0,-999.0,93,0.00,,,0.00,Wunderground v.1.15,2013-08-03 09:49:00,
2013-08-03 02:54:00,55.0,53.0,29.91,West,270,2.0,-999.0,93,0.00,,,0.00,Wunderground v.1.15,2013-08-03 09:54:00,
2013-08-03 02:59:00,55.1,53.1,29.91,West,270,0.0,-999.0,93,0.00,,,0.00,Wunderground v.1.15,2013-08-03 09:59:00,
2013-08-03 03:04:00,55.1,53.1,29.91,West,270,0.0,-999.0,93,0.00,,,0.00,Wunderground v.1.15,2013-08-03 10:04:00,
2013-08-03 03:09:00,55.1,53.1,29.91,West,270,0.0,-999.0,93,0.00,,,0.00,Wunderground v.1.15,2013-08-03 10:09:00,
2013-08-03 03:14:00,55.1,53.1,29.91,West,270,0.0,-999.0,93,0.00,,,0.00,Wunderground v.1.15,2013-08-03 10:14:00,
2013-08-03 03:19:00,55.2,53.2,29.91,West,270,0.0,-999.0,93,0.00,,,0.00,Wunderground v.1.15,2013-08-03 10:19:00,
2013-08-03 03:24:00,55.2,53.2,29.91,West,270,0.0,-999.0,93,0.00,,,0.00,Wunderground v.1.15,2013-08-03 10:24:00,
2013-08-03 03:29:00,55.3,53.3,29.91,West,270,0.0,-999.0,93,0.00,,,0.00,Wunderground v.1.15,2013-08-03 10:29:00,
2013-08-03 03:34:00,55.3,53.3,29.91,West,270,0.0,-999.0,93,0.00,,,0.00,Wunderground v.1.15,2013-08-03 10:34:00,
2013-08-03 03:39:00,55.3,53.3,29.91,West,270,0.0,-999.0,93,0.00,,,0.00,Wunderground v.1.15,2013-08-03 10:39:00,
2013-08-03 03:44:00,55.4,53.4,29.91,West,270,0.0,-999.0,93,0.00,,,0.00,Wunderground v.1.15,2013-08-03 10:44:00,
2013-08-03 03:49:00,55.4,53.4,29.91,West,270,0.0,-999.0,93,0.00,,,0.00,Wunderground v.1.15,2013-08-03 10:49:00,
2013-08-03 03:54:00,55.4,53.4,29.91,West,270,0.0,-999.0,93,0.00,,,0.00,Wunderground v.1.15,2013-08-03 10:54:00,
2013-08-03 03:59:00,55.4,53.4,29.91,West,270,0.0,-999.0,93,0.00,,,0.00,Wunderground v.1.15,2013-08-03 10:59:00,
2013-08-03 04:04:00,55.5,53.5,29.91,West,270,0.0,-999.0,93,0.00,,,0.00,Wunderground v.1.15,2013-08-03 11:04:00,
2013-08-03 04:09:00,55.6,53.6,29.91,SW,225,1.0,-999.0,93,0.00,,,0.00,Wunderground v.1.15,2013-08-03 11:09:00,
2013-08-03 04:14:00,55.7,53.7,29.91,WSW,248,1.0,-999.0,93,0.00,,,0.00,Wunderground v.1.15,2013-08-03 11:14:00,
2013-08-03 04:19:00,55.8,53.8,29.91,West,270,1.0,-999.0,93,0.00,,,0.00,Wunderground v.1.15,2013-08-03 11:19:00,
2013-08-03 04:24:00,55.8,53.8,29.91,West,270,1.0,-999.0,93,0.00,,,0.00,Wunderground v.1.15,2013-08-03 11:24:00,
2013-08-03 04:29:00,55.9,53.9,29.91,West,270,1.0,-999.0,93,0.00,,,0.00,Wunderground v.1.15,2013-08-03 11:29:00,
2013-08-03 04:34:00,55.9,53.9,29.91,SW,225,2.0,-999.0,93,0.00,,,0.00,Wunderground v.1.15,2013-08-03 11:34:00,
2013-08-03 04:39:00,55.9,53.9,29.91,SW,225,2.0,-999.0,93,0.00,,,0.00,Wunderground v.1.15,2013-08-03 11:39:00,
2013-08-03 04:44:00,55.9,53.9,29.91,SSW,203,3.0,-999.0,93,0.00,,,0.00,Wunderground v.1.15,2013-08-03 11:44:00,
2013-08-03 04:49:00,55.9,53.6,29.91,WSW,248,2.0,-999.0,92,0.00,,,0.00,Wunderground v.1.15,2013-08-03 11:49:00,
2013-08-03 04:54:00,55.8,53.5,29.91,WSW,248,3.0,-999.0,92,0.00,,,0.00,Wunderground v.1.15,2013-08-03 11:54:00,
2013-08-03 04:59:00,55.7,53.4,29.91,SSW,203,2.0,-999.0,92,0.00,,,0.00,Wunderground v.1.15,2013-08-03 11:59:00,
2013-08-03 05:04:00,55.7,53.4,29.91,West,270,4.0,-999.0,92,0.00,,,0.00,Wunderground v.1.15,2013-08-03 12:04:00,
2013-08-03 05:09:00,55.6,53.3,29.91,WSW,248,3.0,-999.0,92,0.00,,,0.00,Wunderground v.1.15,2013-08-03 12:09:00,
2013-08-03 05:14:00,55.6,53.3,29.91,SW,225,2.0,-999.0,92,0.00,,,0.00,Wunderground v.1.15,2013-08-03 12:14:00,
2013-08-03 05:19:00,55.5,53.2,29.91,SW,225,2.0,-999.0,92,0.00,,,0.00,Wunderground v.1.15,2013-08-03 12:19:00,
2013-08-03 05:24:00,55.5,53.2,29.91,WSW,248,3.0,-999.0,92,0.00,,,0.00,Wunderground v.1.15,2013-08-03 12:24:00,
2013-08-03 05:29:00,55.5,53.2,29.91,WSW,248,2.0,-999.0,92,0.00,,,0.00,Wunderground v.1.15,2013-08-03 12:29:00,
2013-08-03 05:34:00,55.5,53.2,29.91,West,270,3.0,-999.0,92,0.00,,,0.00,Wunderground v.1.15,2013-08-03 12:34:00,
2013-08-03 05:39:00,55.5,53.2,29.92,SW,225,3.0,-999.0,92,0.00,,,0.00,Wunderground v.1.15,2013-08-03 12:39:00,
2013-08-03 05:44:00,55.4,53.1,29.92,WSW,248,3.0,-999.0,92,0.00,,,0.00,Wunderground v.1.15,2013-08-03 12:44:00,
2013-08-03 05:49:00,55.4,53.1,29.92,SW,225,3.0,-999.0,92,0.00,,,0.00,Wunderground v.1.15,2013-08-03 12:49:00,
2013-08-03 05:54:00,55.3,53.0,29.92,South,180,3.0,-999.0,92,0.00,,,0.00,Wunderground v.1.15,2013-08-03 12:54:00,
2013-08-03 05:59:00,55.3,53.0,29.92,WSW,248,3.0,-999.0,92,0.00,,,0.00,Wunderground v.1.15,2013-08-03 12:59:00,
2013-08-03 06:04:00,55.3,53.0,29.92,SW,225,3.0,-999.0,92,0.00,,,0.00,Wunderground v.1.15,2013-08-03 13:04:00,
2013-08-03 06:09:00,55.3,53.0,29.92,SW,225,4.0,-999.0,92,0.00,,,0.00,Wunderground v.1.15,2013-08-03 13:09:00,
2013-08-03 06:14:00,55.3,53.0,29.92,WSW,248,2.0,-999.0,92,0.00,,,0.00,Wunderground v.1.15,2013-08-03 13:14:00,
2013-08-03 06:19:00,55.3,53.0,29.92,WSW,248,2.0,-999.0,92,0.00,,,0.00,Wunderground v.1.15,2013-08-03 13:19:00,
2013-08-03 06:24:00,55.3,53.0,29.92,WSW,248,1.0,-999.0,92,0.00,,,0.00,Wunderground v.1.15,2013-08-03 13:24:00,
2013-08-03 06:29:00,55.3,53.0,29.93,SW,225,4.0,-999.0,92,0.00,,,0.00,Wunderground v.1.15,2013-08-03 13:29:00,
2013-08-03 06:34:00,55.3,53.0,29.93,SW,225,3.0,-999.0,92,0.00,,,0.00,Wunderground v.1.15,2013-08-03 13:34:00,
2013-08-03 06:39:00,55.3,53.0,29.93,WSW,248,2.0,-999.0,92,0.00,,,0.00,Wunderground v.1.15,2013-08-03 13:39:00,
2013-08-03 06:44:00,55.3,53.0,29.93,SW,225,2.0,-999.0,92,0.00,,,0.00,Wunderground v.1.15,2013-08-03 13:44:00,
2013-08-03 06:49:00,55.3,53.0,29.93,WSW,248,2.0,-999.0,92,0.00,,,0.00,Wunderground v.1.15,2013-08-03 13:49:00,
2013-08-03 06:54:00,55.3,53.0,29.93,SW,225,3.0,-999.0,92,0.00,,,0.00,Wunderground v.1.15,2013-08-03 13:54:00,
2013-08-03 06:59:00,55.3,53.0,29.93,WSW,248,2.0,-999.0,92,0.00,,,0.00,Wunderground v.1.15,2013-08-03 13:59:00,
2013-08-03 07:04:00,55.3,53.0,29.93,SW,225,2.0,-999.0,92,0.00,,,0.00,Wunderground v.1.15,2013-08-03 14:04:00,
2013-08-03 07:09:00,55.3,53.0,29.93,SW,225,3.0,-999.0,92,0.00,,,0.00,Wunderground v.1.15,2013-08-03 14:09:00,
2013-08-03 07:14:00,55.3,53.0,29.94,WSW,248,2.0,-999.0,92,0.00,,,0.00,Wunderground v.1.15,2013-08-03 14:14:00,
2013-08-03 07:19:00,55.3,53.0,29.94,WNW,293,0.0,-999.0,92,0.00,,,0.00,Wunderground v.1.15,2013-08-03 14:19:00,
2013-08-03 07:24:00,55.4,53.1,29.94,West,270,1.0,-999.0,92,0.00,,,0.00,Wunderground v.1.15,2013-08-03 14:24:00,
2013-08-03 07:29:00,55.5,53.2,29.94,West,270,1.0,-999.0,92,0.00,,,0.00,Wunderground v.1.15,2013-08-03 14:29:00,
2013-08-03 07:34:00,55.5,53.2,29.94,WSW,248,1.0,-999.0,92,0.00,,,0.00,Wunderground v.1.15,2013-08-03 14:34:00,
2013-08-03 07:39:00,55.6,53.3,29.94,WSW,248,2.0,-999.0,92,0.00,,,0.00,Wunderground v.1.15,2013-08-03 14:39:00,
2013-08-03 07:44:00,55.6,53.3,29.95,WSW,248,3.0,-999.0,92,0.00,,,0.00,Wunderground v.1.15,2013-08-03 14:44:00,
2013-08-03 07:49:00,55.6,53.3,29.95,SW,225,3.0,-999.0,92,0.00,,,0.00,Wunderground v.1.15,2013-08-03 14:49:00,
2013-08-03 07:54:00,55.7,53.4,29.95,SW,225,2.0,-999.0,92,0.00,,,0.00,Wunderground v.1.15,2013-08-03 14:54:00,
2013-08-03 07:59:00,55.8,53.5,29.95,SW,225,3.0,-999.0,92,0.00,,,0.00,Wunderground v.1.15,2013-08-03 14:59:00,
2013-08-03 08:04:00,55.9,53.3,29.95,SW,225,4.0,-999.0,91,0.00,,,0.00,Wunderground v.1.15,2013-08-03 15:04:00,
2013-08-03 08:09:00,55.9,53.6,29.95,SW,225,3.0,-999.0,92,0.00,,,0.00,Wunderground v.1.15,2013-08-03 15:09:00,
2013-08-03 08:14:00,56.0,53.4,29.95,SW,225,2.0,-999.0,91,0.00,,,0.00,Wunderground v.1.15,2013-08-03 15:14:00,
2013-08-03 08:19:00,56.0,53.7,29.95,West,270,2.0,-999.0,92,0.00,,,0.00,Wunderground v.1.15,2013-08-03 15:19:00,
2013-08-03 08:24:00,56.1,53.5,29.95,WSW,248,2.0,-999.0,91,0.00,,,0.00,Wunderground v.1.15,2013-08-03 15:24:00,
2013-08-03 08:29:00,56.1,53.8,29.95,WSW,248,1.0,-999.0,92,0.00,,,0.00,Wunderground v.1.15,2013-08-03 15:29:00,
2013-08-03 08:34:00,56.2,53.9,29.95,West,270,2.0,-999.0,92,0.00,,,0.00,Wunderground v.1.15,2013-08-03 15:34:00,
2013-08-03 08:39:00,56.4,53.8,29.95,NW,315,1.0,-999.0,91,0.00,,,0.00,Wunderground v.1.15,2013-08-03 15:39:00,
2013-08-03 08:44:00,56.6,54.0,29.95,West,270,2.0,-999.0,91,0.00,,,0.00,Wunderground v.1.15,2013-08-03 15:44:00,
2013-08-03 08:49:00,56.7,54.1,29.95,WSW,248,2.0,-999.0,91,0.00,,,0.00,Wunderground v.1.15,2013-08-03 15:49:00,
2013-08-03 08:54:00,56.9,54.0,29.95,WSW,248,1.0,-999.0,90,0.00,,,0.00,Wunderground v.1.15,2013-08-03 15:54:00,
2013-08-03 09:04:00,56.9,53.7,29.95,SSE,158,2.0,-999.0,89,0.00,,,0.00,Wunderground v.1.15,2013-08-03 16:04:00,
2013-08-03 09:19:00,57.2,53.7,29.95,South,180,1.0,-999.0,88,0.00,,,0.00,Wunderground v.1.15,2013-08-03 16:19:00,
2013-08-03 09:24:00,57.5,54.0,29.95,SSE,158,1.0,-999.0,88,0.00,,,0.00,Wunderground v.1.15,2013-08-03 16:24:00,
2013-08-03 09:29:00,57.7,53.9,29.95,SSE,158,3.0,-999.0,87,0.00,,,0.00,Wunderground v.1.15,2013-08-03 16:29:00,
2013-08-03 09:39:00,58.1,54.2,29.95,WSW,248,2.0,-999.0,87,0.00,,,0.00,Wunderground v.1.15,2013-08-03 16:39:00,
2013-08-03 09:44:00,58.1,53.9,29.95,SW,225,3.0,-999.0,86,0.00,,,0.00,Wunderground v.1.15,2013-08-03 16:44:00,
2013-08-03 09:49:00,58.3,54.1,29.95,West,270,4.0,-999.0,86,0.00,,,0.00,Wunderground v.1.15,2013-08-03 16:49:00,
2013-08-03 09:54:00,58.6,54.4,29.95,West,270,3.0,-999.0,86,0.00,,,0.00,Wunderground v.1.15,2013-08-03 16:54:00,
2013-08-03 09:59:00,58.9,54.1,29.95,SW,225,3.0,-999.0,84,0.00,,,0.00,Wunderground v.1.15,2013-08-03 16:59:00,
2013-08-03 10:04:00,59.2,54.0,29.95,SSE,158,3.0,-999.0,83,0.00,,,0.00,Wunderground v.1.15,2013-08-03 17:04:00,
2013-08-03 10:09:00,59.4,54.6,29.95,SSE,158,1.0,-999.0,84,0.00,,,0.00,Wunderground v.1.15,2013-08-03 17:09:00,
2013-08-03 10:14:00,60.1,54.6,29.95,South,180,2.0,-999.0,82,0.00,,,0.00,Wunderground v.1.15,2013-08-03 17:14:00,
2013-08-03 10:19:00,60.6,55.1,29.95,SSW,203,2.0,-999.0,82,0.00,,,0.00,Wunderground v.1.15,2013-08-03 17:19:00,
2013-08-03 10:24:00,61.3,55.1,29.95,SSE,158,4.0,-999.0,80,0.00,,,0.00,Wunderground v.1.15,2013-08-03 17:24:00,
2013-08-03 10:29:00,61.6,55.0,29.95,SSE,158,3.0,-999.0,79,0.00,,,0.00,Wunderground v.1.15,2013-08-03 17:29:00,
2013-08-03 10:34:00,61.7,54.8,29.95,WSW,248,4.0,-999.0,78,0.00,,,0.00,Wunderground v.1.15,2013-08-03 17:34:00,
2013-08-03 10:39:00,61.9,55.0,29.95,NW,315,2.0,-999.0,78,0.00,,,0.00,Wunderground v.1.15,2013-08-03 17:39:00,
2013-08-03 10:44:00,62.6,55.3,29.95,SSE,158,2.0,-999.0,77,0.00,,,0.00,Wunderground v.1.15,2013-08-03 17:44:00,
2013-08-03 10:49:00,63.0,55.3,29.95,SSE,158,4.0,-999.0,76,0.00,,,0.00,Wunderground v.1.15,2013-08-03 17:49:00,
2013-08-03 10:54:00,63.5,55.4,29.95,SSE,158,4.0,-999.0,75,0.00,,,0.00,Wunderground v.1.15,2013-08-03 17:54:00,
2013-08-03 10:59:00,63.8,55.4,29.95,SSE,158,3.0,-999.0,74,0.00,,,0.00,Wunderground v.1.15,2013-08-03 17:59:00,
2013-08-03 11:04:00,64.1,55.3,29.95,SSE,158,4.0,-999.0,73,0.00,,,0.00,Wunderground v.1.15,2013-08-03 18:04:00,
2013-08-03 11:09:00,64.7,55.8,29.95,SSE,158,4.0,-999.0,73,0.00,,,0.00,Wunderground v.1.15,2013-08-03 18:09:00,
2013-08-03 11:14:00,64.7,55.5,29.95,SW,225,4.0,-999.0,72,0.00,,,0.00,Wunderground v.1.15,2013-08-03 18:14:00,
2013-08-03 11:19:00,64.7,55.8,29.95,WSW,248,3.0,-999.0,73,0.00,,,0.00,Wunderground v.1.15,2013-08-03 18:19:00,
2013-08-03 11:24:00,65.4,55.7,29.95,SSE,158,4.0,-999.0,71,0.00,,,0.00,Wunderground v.1.15,2013-08-03 18:24:00,
2013-08-03 11:29:00,66.0,55.9,29.94,SW,225,4.0,-999.0,70,0.00,,,0.00,Wunderground v.1.15,2013-08-03 18:29:00,
2013-08-03 11:34:00,66.2,55.7,29.94,SSE,158,2.0,-999.0,69,0.00,,,0.00,Wunderground v.1.15,2013-08-03 18:34:00,
2013-08-03 11:39:00,66.6,55.7,29.94,SSW,203,4.0,-999.0,68,0.00,,,0.00,Wunderground v.1.15,2013-08-03 18:39:00,
2013-08-03 11:44:00,66.9,55.6,29.94,South,180,4.0,-999.0,67,0.00,,,0.00,Wunderground v.1.15,2013-08-03 18:44:00,
2013-08-03 11:49:00,67.1,55.4,29.94,WSW,248,2.0,-999.0,66,0.00,,,0.00,Wunderground v.1.15,2013-08-03 18:49:00,
2013-08-03 11:54:00,66.9,55.6,29.94,SW,225,5.0,-999.0,67,0.00,,,0.00,Wunderground v.1.15,2013-08-03 18:54:00,
2013-08-03 11:59:00,67.0,55.7,29.94,WSW,248,6.0,-999.0,67,0.00,,,0.00,Wunderground v.1.15,2013-08-03 18:59:00,
2013-08-03 12:04:00,67.7,55.9,29.94,SSE,158,4.0,-999.0,66,0.00,,,0.00,Wunderground v.1.15,2013-08-03 19:04:00,
2013-08-03 12:09:00,68.4,56.2,29.94,SSE,158,3.0,-999.0,65,0.00,,,0.00,Wunderground v.1.15,2013-08-03 19:09:00,
2013-08-03 12:14:00,69.1,56.0,29.94,SSE,158,4.0,-999.0,63,0.00,,,0.00,Wunderground v.1.15,2013-08-03 19:14:00,
2013-08-03 12:19:00,68.9,56.2,29.94,SW,225,5.0,-999.0,64,0.00,,,0.00,Wunderground v.1.15,2013-08-03 19:19:00,
2013-08-03 12:24:00,68.9,56.6,29.94,WSW,248,4.0,-999.0,65,0.00,,,0.00,Wunderground v.1.15,2013-08-03 19:24:00,
2013-08-03 12:29:00,69.7,57.0,29.94,SE,135,2.0,-999.0,64,0.00,,,0.00,Wunderground v.1.15,2013-08-03 19:29:00,
2013-08-03 12:34:00,69.7,56.5,29.94,SW,225,6.0,-999.0,63,0.00,,,0.00,Wunderground v.1.15,2013-08-03 19:34:00,
2013-08-03 12:39:00,69.7,56.5,29.94,SW,225,4.0,-999.0,63,0.00,,,0.00,Wunderground v.1.15,2013-08-03 19:39:00,
2013-08-03 12:44:00,69.9,56.3,29.94,South,180,5.0,-999.0,62,0.00,,,0.00,Wunderground v.1.15,2013-08-03 19:44:00,
2013-08-03 12:49:00,69.7,56.1,29.94,WSW,248,6.0,-999.0,62,0.00,,,0.00,Wunderground v.1.15,2013-08-03 19:49:00,
2013-08-03 12:54:00,69.7,56.5,29.94,SW,225,4.0,-999.0,63,0.00,,,0.00,Wunderground v.1.15,2013-08-03 19:54:00,
2013-08-03 12:59:00,70.2,56.6,29.94,SW,225,4.0,-999.0,62,0.00,,,0.00,Wunderground v.1.15,2013-08-03 19:59:00,
2013-08-03 13:04:00,69.9,55.8,29.94,WSW,248,5.0,-999.0,61,0.00,,,0.00,Wunderground v.1.15,2013-08-03 20:04:00,
2013-08-03 13:09:00,69.6,55.6,29.93,WSW,248,5.0,-999.0,61,0.00,,,0.00,Wunderground v.1.15,2013-08-03 20:09:00,
2013-08-03 13:14:00,70.0,56.4,29.93,South,180,2.0,-999.0,62,0.00,,,0.00,Wunderground v.1.15,2013-08-03 20:14:00,
2013-08-03 13:19:00,70.6,56.9,29.93,West,270,3.0,-999.0,62,0.00,,,0.00,Wunderground v.1.15,2013-08-03 20:19:00,
2013-08-03 13:24:00,71.0,57.3,29.93,WSW,248,6.0,-999.0,62,0.00,,,0.00,Wunderground v.1.15,2013-08-03 20:24:00,
2013-08-03 13:29:00,71.4,57.7,29.93,WSW,248,4.0,-999.0,62,0.00,,,0.00,Wunderground v.1.15,2013-08-03 20:29:00,
2013-08-03 13:34:00,71.8,57.6,29.93,SW,225,7.0,-999.0,61,0.00,,,0.00,Wunderground v.1.15,2013-08-03 20:34:00,
2013-08-03 13:39:00,72.1,57.9,29.93,WSW,248,4.0,-999.0,61,0.00,,,0.00,Wunderground v.1.15,2013-08-03 20:39:00,
2013-08-03 13:44:00,72.4,57.3,29.93,SW,225,5.0,-999.0,59,0.00,,,0.00,Wunderground v.1.15,2013-08-03 20:44:00,
2013-08-03 13:49:00,72.9,57.7,29.93,NW,315,3.0,-999.0,59,0.00,,,0.00,Wunderground v.1.15,2013-08-03 20:49:00,
2013-08-03 13:54:00,72.7,57.5,29.93,SW,225,5.0,-999.0,59,0.00,,,0.00,Wunderground v.1.15,2013-08-03 20:54:00,
2013-08-03 13:59:00,72.5,57.4,29.93,WSW,248,7.0,-999.0,59,0.00,,,0.00,Wunderground v.1.15,2013-08-03 20:59:00,
2013-08-03 14:04:00,72.3,57.2,29.93,SW,225,6.0,-999.0,59,0.00,,,0.00,Wunderground v.1.15,2013-08-03 21:04:00,
2013-08-03 14:09:00,72.6,57.4,29.93,SSW,203,5.0,-999.0,59,0.00,,,0.00,Wunderground v.1.15,2013-08-03 21:09:00,
2013-08-03 14:14:00,73.0,57.3,29.93,SW,225,5.0,-999.0,58,0.00,,,0.00,Wunderground v.1.15,2013-08-03 21:14:00,
2013-08-03 14:19:00,72.9,57.3,29.93,SW,225,5.0,-999.0,58,0.00,,,0.00,Wunderground v.1.15,2013-08-03 21:19:00,
2013-08-03 14:24:00,73.0,57.3,29.92,SW,225,5.0,-999.0,58,0.00,,,0.00,Wunderground v.1.15,2013-08-03 21:24:00,
2013-08-03 14:29:00,73.6,57.9,29.92,SSW,203,5.0,-999.0,58,0.00,,,0.00,Wunderground v.1.15,2013-08-03 21:29:00,
2013-08-03 14:34:00,74.8,57.5,29.92,WNW,293,3.0,-999.0,55,0.00,,,0.00,Wunderground v.1.15,2013-08-03 21:34:00,
2013-08-03 14:39:00,75.7,57.4,29.92,South,180,4.0,-999.0,53,0.00,,,0.00,Wunderground v.1.15,2013-08-03 21:39:00,
2013-08-03 14:44:00,75.3,57.5,29.92,SW,225,6.0,-999.0,54,0.00,,,0.00,Wunderground v.1.15,2013-08-03 21:44:00,
2013-08-03 14:49:00,74.5,57.3,29.92,WSW,248,5.0,-999.0,55,0.00,,,0.00,Wunderground v.1.15,2013-08-03 21:49:00,
2013-08-03 14:54:00,74.1,57.4,29.92,SW,225,5.0,-999.0,56,0.00,,,0.00,Wunderground v.1.15,2013-08-03 21:54:00,
2013-08-03 14:59:00,74.5,57.3,29.92,SW,225,6.0,-999.0,55,0.00,,,0.00,Wunderground v.1.15,2013-08-03 21:59:00,
2013-08-03 15:04:00,74.0,56.8,29.92,SW,225,7.0,-999.0,55,0.00,,,0.00,Wunderground v.1.15,2013-08-03 22:04:00,
2013-08-03 15:09:00,74.0,57.8,29.91,SW,225,4.0,-999.0,57,0.00,,,0.00,Wunderground v.1.15,2013-08-03 22:09:00,
2013-08-03 15:14:00,74.4,57.7,29.92,SW,225,6.0,-999.0,56,0.00,,,0.00,Wunderground v.1.15,2013-08-03 22:14:00,
2013-08-03 15:19:00,74.0,57.8,29.91,SW,225,6.0,-999.0,57,0.00,,,0.00,Wunderground v.1.15,2013-08-03 22:19:00,
2013-08-03 15:24:00,74.2,57.5,29.91,SW,225,6.0,-999.0,56,0.00,,,0.00,Wunderground v.1.15,2013-08-03 22:24:00,
2013-08-03 15:29:00,74.6,57.4,29.91,SW,225,6.0,-999.0,55,0.00,,,0.00,Wunderground v.1.15,2013-08-03 22:29:00,
2013-08-03 15:34:00,74.1,57.4,29.91,SW,225,8.0,-999.0,56,0.00,,,0.00,Wunderground v.1.15,2013-08-03 22:34:00,
2013-08-03 15:39:00,74.0,57.8,29.91,SSW,203,6.0,-999.0,57,0.00,,,0.00,Wunderground v.1.15,2013-08-03 22:39:00,
2013-08-03 15:44:00,74.5,57.8,29.91,SW,225,7.0,-999.0,56,0.00,,,0.00,Wunderground v.1.15,2013-08-03 22:44:00,
2013-08-03 15:49:00,74.5,57.3,29.91,SW,225,6.0,-999.0,55,0.00,,,0.00,Wunderground v.1.15,2013-08-03 22:49:00,
2013-08-03 15:54:00,74.1,57.4,29.91,SW,225,8.0,-999.0,56,0.00,,,0.00,Wunderground v.1.15,2013-08-03 22:54:00,
2013-08-03 15:59:00,74.0,57.3,29.91,SW,225,7.0,-999.0,56,0.00,,,0.00,Wunderground v.1.15,2013-08-03 22:59:00,
2013-08-03 16:04:00,74.4,57.2,29.91,SW,225,6.0,-999.0,55,0.00,,,0.00,Wunderground v.1.15,2013-08-03 23:04:00,
2013-08-03 16:09:00,74.4,57.2,29.91,SW,225,7.0,-999.0,55,0.00,,,0.00,Wunderground v.1.15,2013-08-03 23:09:00,
2013-08-03 16:14:00,74.4,57.2,29.91,WSW,248,5.0,-999.0,55,0.00,,,0.00,Wunderground v.1.15,2013-08-03 23:14:00,
2013-08-03 16:19:00,74.4,57.2,29.90,WSW,248,5.0,-999.0,55,0.00,,,0.00,Wunderground v.1.15,2013-08-03 23:19:00,
2013-08-03 16:24:00,74.6,56.9,29.90,West,270,3.0,-999.0,54,0.00,,,0.00,Wunderground v.1.15,2013-08-03 23:24:00,
2013-08-03 16:29:00,74.9,57.1,29.90,WNW,293,4.0,-999.0,54,0.00,,,0.00,Wunderground v.1.15,2013-08-03 23:29:00,
2013-08-03 16:34:00,75.7,57.4,29.90,NW,315,3.0,-999.0,53,0.00,,,0.00,Wunderground v.1.15,2013-08-03 23:34:00,
2013-08-03 16:39:00,76.1,57.7,29.90,WNW,293,3.0,-999.0,53,0.00,,,0.00,Wunderground v.1.15,2013-08-03 23:39:00,
2013-08-03 16:44:00,76.6,57.7,29.89,NW,315,4.0,-999.0,52,0.00,,,0.00,Wunderground v.1.15,2013-08-03 23:44:00,
2013-08-03 16:49:00,77.2,57.7,29.89,NW,315,4.0,-999.0,51,0.00,,,0.00,Wunderground v.1.15,2013-08-03 23:49:00,
2013-08-03 16:54:00,76.7,57.2,29.89,WNW,293,3.0,-999.0,51,0.00,,,0.00,Wunderground v.1.15,2013-08-03 23:54:00,
2013-08-03 16:59:00,76.3,57.4,29.89,NW,315,4.0,-999.0,52,0.00,,,0.00,Wunderground v.1.15,2013-08-03 23:59:00,
2013-08-03 17:04:00,76.3,57.4,29.89,NW,315,4.0,-999.0,52,0.00,,,0.00,Wunderground v.1.15,2013-08-04 00:04:00,
2013-08-03 17:09:00,76.3,57.4,29.89,NW,315,4.0,-999.0,52,0.00,,,0.00,Wunderground v.1.15,2013-08-04 00:09:00,
2013-08-03 17:14:00,75.4,57.1,29.89,WSW,248,5.0,-999.0,53,0.00,,,0.00,Wunderground v.1.15,2013-08-04 00:14:00,
2013-08-03 17:19:00,74.5,56.8,29.89,WSW,248,5.0,-999.0,54,0.00,,,0.00,Wunderground v.1.15,2013-08-04 00:19:00,
2013-08-03 17:24:00,74.4,57.2,29.89,WNW,293,5.0,-999.0,55,0.00,,,0.00,Wunderground v.1.15,2013-08-04 00:24:00,
2013-08-03 17:29:00,74.6,57.4,29.89,West,270,4.0,-999.0,55,0.00,,,0.00,Wunderground v.1.15,2013-08-04 00:29:00,
2013-08-03 17:34:00,74.8,57.0,29.89,NW,315,3.0,-999.0,54,0.00,,,0.00,Wunderground v.1.15,2013-08-04 00:34:00,
2013-08-03 17:39:00,74.4,56.7,29.88,SW,225,4.0,-999.0,54,0.00,,,0.00,Wunderground v.1.15,2013-08-04 00:39:00,
2013-08-03 17:44:00,74.2,57.0,29.89,NW,315,4.0,-999.0,55,0.00,,,0.00,Wunderground v.1.15,2013-08-04 00:44:00,
2013-08-03 17:49:00,74.6,56.9,29.88,NW,315,4.0,-999.0,54,0.00,,,0.00,Wunderground v.1.15,2013-08-04 00:49:00,
2013-08-03 17:54:00,74.4,56.7,29.88,WNW,293,4.0,-999.0,54,0.00,,,0.00,Wunderground v.1.15,2013-08-04 00:54:00,
2013-08-03 17:59:00,73.7,56.5,29.88,WSW,248,5.0,-999.0,55,0.00,,,0.00,Wunderground v.1.15,2013-08-04 00:59:00,
2013-08-03 18:04:00,73.3,56.7,29.88,WSW,248,5.0,-999.0,56,0.00,,,0.00,Wunderground v.1.15,2013-08-04 01:04:00,
2013-08-03 18:09:00,72.9,56.8,29.88,West,270,4.0,-999.0,57,0.00,,,0.00,Wunderground v.1.15,2013-08-04 01:09:00,
2013-08-03 18:14:00,73.0,56.4,29.88,NW,315,4.0,-999.0,56,0.00,,,0.00,Wunderground v.1.15,2013-08-04 01:14:00,
2013-08-03 18:19:00,72.6,56.5,29.88,West,270,4.0,-999.0,57,0.00,,,0.00,Wunderground v.1.15,2013-08-04 01:19:00,
2013-08-03 18:24:00,71.7,56.1,29.88,WSW,248,6.0,-999.0,58,0.00,,,0.00,Wunderground v.1.15,2013-08-04 01:24:00,
2013-08-03 18:29:00,71.1,56.0,29.88,WSW,248,5.0,-999.0,59,0.00,,,0.00,Wunderground v.1.15,2013-08-04 01:29:00,
2013-08-03 18:34:00,71.3,56.7,29.88,WSW,248,4.0,-999.0,60,0.00,,,0.00,Wunderground v.1.15,2013-08-04 01:34:00,
2013-08-03 18:39:00,71.2,56.6,29.88,West,270,4.0,-999.0,60,0.00,,,0.00,Wunderground v.1.15,2013-08-04 01:39:00,
2013-08-03 18:44:00,71.1,56.5,29.88,WSW,248,4.0,-999.0,60,0.00,,,0.00,Wunderground v.1.15,2013-08-04 01:44:00,
2013-08-03 18:49:00,70.6,56.5,29.88,WSW,248,3.0,-999.0,61,0.00,,,0.00,Wunderground v.1.15,2013-08-04 01:49:00,
2013-08-03 18:54:00,69.9,56.3,29.88,WNW,293,3.0,-999.0,62,0.00,,,0.00,Wunderground v.1.15,2013-08-04 01:54:00,
2013-08-03 18:59:00,69.5,56.3,29.88,NW,315,3.0,-999.0,63,0.00,,,0.00,Wunderground v.1.15,2013-08-04 01:59:00,
2013-08-03 19:04:00,69.1,56.0,29.88,West,270,4.0,-999.0,63,0.00,,,0.00,Wunderground v.1.15,2013-08-04 02:04:00,
2013-08-03 19:09:00,68.4,56.2,29.88,WNW,293,3.0,-999.0,65,0.00,,,0.00,Wunderground v.1.15,2013-08-04 02:09:00,
2013-08-03 19:14:00,67.8,56.0,29.88,WNW,293,4.0,-999.0,66,0.00,,,0.00,Wunderground v.1.15,2013-08-04 02:14:00,
2013-08-03 19:19:00,67.4,56.1,29.88,WNW,293,3.0,-999.0,67,0.00,,,0.00,Wunderground v.1.15,2013-08-04 02:19:00,
2013-08-03 19:24:00,66.9,56.0,29.88,WNW,293,2.0,-999.0,68,0.00,,,0.00,Wunderground v.1.15,2013-08-04 02:24:00,
2013-08-03 19:29:00,66.6,56.1,29.88,NW,315,3.0,-999.0,69,0.00,,,0.00,Wunderground v.1.15,2013-08-04 02:29:00,
2013-08-03 19:34:00,66.4,55.9,29.89,West,270,3.0,-999.0,69,0.00,,,0.00,Wunderground v.1.15,2013-08-04 02:34:00,
2013-08-03 19:39:00,65.9,55.8,29.89,WSW,248,3.0,-999.0,70,0.00,,,0.00,Wunderground v.1.15,2013-08-04 02:39:00,
2013-08-03 19:44:00,65.4,55.4,29.89,West,270,3.0,-999.0,70,0.00,,,0.00,Wunderground v.1.15,2013-08-04 02:44:00,
2013-08-03 19:49:00,64.8,55.6,29.89,NW,315,3.0,-999.0,72,0.00,,,0.00,Wunderground v.1.15,2013-08-04 02:49:00,
2013-08-03 19:54:00,64.3,55.1,29.89,West,270,2.0,-999.0,72,0.00,,,0.00,Wunderground v.1.15,2013-08-04 02:54:00,
2013-08-03 19:59:00,63.8,55.0,29.89,NW,315,2.0,-999.0,73,0.00,,,0.00,Wunderground v.1.15,2013-08-04 02:59:00,
2013-08-03 20:04:00,63.3,54.9,29.89,NW,315,3.0,-999.0,74,0.00,,,0.00,Wunderground v.1.15,2013-08-04 03:04:00,
2013-08-03 20:09:00,62.7,54.7,29.89,NW,315,3.0,-999.0,75,0.00,,,0.00,Wunderground v.1.15,2013-08-04 03:09:00,
2013-08-03 20:14:00,62.2,54.5,29.89,WNW,293,2.0,-999.0,76,0.00,,,0.00,Wunderground v.1.15,2013-08-04 03:14:00,
2013-08-03 20:19:00,61.8,54.5,29.90,WNW,293,2.0,-999.0,77,0.00,,,0.00,Wunderground v.1.15,2013-08-04 03:19:00,
2013-08-03 20:24:00,61.3,54.0,29.90,West,270,1.0,-999.0,77,0.00,,,0.00,Wunderground v.1.15,2013-08-04 03:24:00,
2013-08-03 20:29:00,61.0,54.1,29.90,WNW,293,2.0,-999.0,78,0.00,,,0.00,Wunderground v.1.15,2013-08-04 03:29:00,
2013-08-03 20:34:00,60.7,54.1,29.90,WNW,293,1.0,-999.0,79,0.00,,,0.00,Wunderground v.1.15,2013-08-04 03:34:00,
2013-08-03 20:39:00,60.3,54.1,29.90,WNW,293,1.0,-999.0,80,0.00,,,0.00,Wunderground v.1.15,2013-08-04 03:39:00,
2013-08-03 20:44:00,60.0,53.8,29.90,West,270,2.0,-999.0,80,0.00,,,0.00,Wunderground v.1.15,2013-08-04 03:44:00,
2013-08-03 20:49:00,59.8,54.0,29.91,WNW,293,1.0,-999.0,81,0.00,,,0.00,Wunderground v.1.15,2013-08-04 03:49:00,
2013-08-03 20:54:00,59.5,53.7,29.91,WSW,248,0.0,-999.0,81,0.00,,,0.00,Wunderground v.1.15,2013-08-04 03:54:00,
2013-08-03 20:59:00,59.3,53.8,29.91,WNW,293,1.0,-999.0,82,0.00,,,0.00,Wunderground v.1.15,2013-08-04 03:59:00,
2013-08-03 21:04:00,59.1,53.6,29.91,West,270,0.0,-999.0,82,0.00,,,0.00,Wunderground v.1.15,2013-08-04 04:04:00,
2013-08-03 21:09:00,58.9,53.4,29.91,West,270,0.0,-999.0,82,0.00,,,0.00,Wunderground v.1.15,2013-08-04 04:09:00,
2013-08-03 21:14:00,58.7,53.2,29.91,West,270,0.0,-999.0,82,0.00,,,0.00,Wunderground v.1.15,2013-08-04 04:14:00,
2013-08-03 21:19:00,58.5,53.4,29.92,West,270,1.0,-999.0,83,0.00,,,0.00,Wunderground v.1.15,2013-08-04 04:19:00,
2013-08-03 21:24:00,58.3,53.5,29.92,West,270,2.0,-999.0,84,0.00,,,0.00,Wunderground v.1.15,2013-08-04 04:24:00,
2013-08-03 21:29:00,58.1,53.3,29.92,WNW,293,1.0,-999.0,84,0.00,,,0.00,Wunderground v.1.15,2013-08-04 04:29:00,
2013-08-03 21:34:00,57.8,53.0,29.92,NW,315,2.0,-999.0,84,0.00,,,0.00,Wunderground v.1.15,2013-08-04 04:34:00,
2013-08-03 21:39:00,57.6,53.1,29.92,NW,315,1.0,-999.0,85,0.00,,,0.00,Wunderground v.1.15,2013-08-04 04:39:00,
2013-08-03 21:44:00,57.3,52.8,29.92,NW,315,1.0,-999.0,85,0.00,,,0.00,Wunderground v.1.15,2013-08-04 04:44:00,
2013-08-03 21:49:00,57.0,52.5,29.93,NW,315,1.0,-999.0,85,0.00,,,0.00,Wunderground v.1.15,2013-08-04 04:49:00,
2013-08-03 21:54:00,56.7,52.6,29.93,WNW,293,1.0,-999.0,86,0.00,,,0.00,Wunderground v.1.15,2013-08-04 04:54:00,
2013-08-03 21:59:00,56.4,52.3,29.93,WNW,293,1.0,-999.0,86,0.00,,,0.00,Wunderground v.1.15,2013-08-04 04:59:00,
2013-08-03 22:04:00,56.2,52.4,29.93,WNW,293,0.0,-999.0,87,0.00,,,0.00,Wunderground v.1.15,2013-08-04 05:04:00,
2013-08-03 22:09:00,56.0,52.2,29.93,WNW,293,1.0,-999.0,87,0.00,,,0.00,Wunderground v.1.15,2013-08-04 05:09:00,
2013-08-03 22:14:00,55.7,52.2,29.93,NW,315,1.0,-999.0,88,0.00,,,0.00,Wunderground v.1.15,2013-08-04 05:14:00,
2013-08-03 22:19:00,55.4,51.9,29.94,NW,315,1.0,-999.0,88,0.00,,,0.00,Wunderground v.1.15,2013-08-04 05:19:00,
2013-08-03 22:24:00,55.2,51.7,29.93,NW,315,2.0,-999.0,88,0.00,,,0.00,Wunderground v.1.15,2013-08-04 05:24:00,
2013-08-03 22:29:00,55.0,51.5,29.93,NW,315,0.0,-999.0,88,0.00,,,0.00,Wunderground v.1.15,2013-08-04 05:29:00,
2013-08-03 22:34:00,54.9,51.7,29.94,NW,315,0.0,-999.0,89,0.00,,,0.00,Wunderground v.1.15,2013-08-04 05:34:00,
2013-08-03 22:39:00,54.7,51.5,29.94,NW,315,1.0,-999.0,89,0.00,,,0.00,Wunderground v.1.15,2013-08-04 05:39:00,
2013-08-03 22:44:00,54.5,51.3,29.94,NW,315,0.0,-999.0,89,0.00,,,0.00,Wunderground v.1.15,2013-08-04 05:44:00,
2013-08-03 22:49:00,54.4,51.5,29.94,NW,315,1.0,-999.0,90,0.00,,,0.00,Wunderground v.1.15,2013-08-04 05:49:00,
2013-08-03 22:54:00,54.4,51.5,29.94,NW,315,2.0,-999.0,90,0.00,,,0.00,Wunderground v.1.15,2013-08-04 05:54:00,
2013-08-03 22:59:00,54.4,51.8,29.94,NW,315,1.0,-999.0,91,0.00,,,0.00,Wunderground v.1.15,2013-08-04 05:59:00,
2013-08-03 23:04:00,54.3,51.7,29.94,NW,315,0.0,-999.0,91,0.00,,,0.00,Wunderground v.1.15,2013-08-04 06:04:00,
2013-08-03 23:09:00,54.2,51.6,29.94,West,270,1.0,-999.0,91,0.00,,,0.00,Wunderground v.1.15,2013-08-04 06:09:00,
2013-08-03 23:14:00,54.1,51.5,29.94,NW,315,1.0,-999.0,91,0.00,,,0.00,Wunderground v.1.15,2013-08-04 06:14:00,
2013-08-03 23:19:00,54.1,51.8,29.94,NW,315,0.0,-999.0,92,0.00,,,0.00,Wunderground v.1.15,2013-08-04 06:19:00,
2013-08-03 23:24:00,54.2,51.9,29.94,NW,315,0.0,-999.0,92,0.00,,,0.00,Wunderground v.1.15,2013-08-04 06:24:00,
2013-08-03 23:29:00,54.2,51.9,29.94,NW,315,1.0,-999.0,92,0.00,,,0.00,Wunderground v.1.15,2013-08-04 06:29:00,
2013-08-03 23:34:00,54.3,52.0,29.94,NW,315,0.0,-999.0,92,0.00,,,0.00,Wunderground v.1.15,2013-08-04 06:34:00,
2013-08-03 23:39:00,54.3,52.0,29.94,NW,315,0.0,-999.0,92,0.00,,,0.00,Wunderground v.1.15,2013-08-04 06:39:00,
2013-08-03 23:44:00,54.3,52.0,29.94,NW,315,2.0,-999.0,92,0.00,,,0.00,Wunderground v.1.15,2013-08-04 06:44:00,
2013-08-03 23:49:00,54.4,52.4,29.95,NW,315,1.0,-999.0,93,0.00,,,0.00,Wunderground v.1.15,2013-08-04 06:49:00,
2013-08-03 23:54:00,54.4,52.4,29.95,N/A,-737280,0.0,-999.0,93,0.00,,,0.00,Wunderground v.1.15,2013-08-04 06:54:00,
2013-08-03 23:59:00,54.3,52.3,29.95,WNW,293,0.0,-999.0,93,0.00,,,0.00,Wunderground v.1.15,2013-08-04 06:59:00,